Regional Weather Roundup
Issued by NWS

Home | Current Version | Previous Version | Text Only | Print | Product List | Glossary On
Versions: 1 2 3 4 5 6 7 8 9 10 11 12 13 14 15 16 17 18 19 20 21 22 23 24 25 26 27 28 29 30 31 32 33 34 35 36 37 38 39 40 41 42 43 44 45 46 47 48 49 50
000
ASUS43 KMKX 221300
RWRWI

WISCONSIN REGIONAL WEATHER ROUNDUP
NATIONAL WEATHER SERVICE MILWAUKEE/SULLIVAN WI
800 AM CDT MON MAY 22 2017

NOTE: "FAIR" INDICATES FEW OR NO CLOUDS BELOW 12,000 FEET WITH NO
SIGNIFICANT WEATHER AND/OR OBSTRUCTIONS TO VISIBILITY.

WIZ001-002-006>008-014>016-023>028-221400-
NORTHWEST WISCONSIN

CITY           SKY/WX    TMP DP  RH WIND       PRES   REMARKS
SUPERIOR ARPT  NOT AVBL
ASHLAND        CLOUDY    48  43  82 SW10      29.78S
HAYWARD        CLOUDY    46  43  89 SW6       29.80F
SIREN          MOSUNNY   46  44  91 W8        29.82F
CUMBERLAND     SUNNY     45  43  93 W10       29.84S
RICE LAKE      MOSUNNY   47  43  86 W10       29.86S
CHETEK         SUNNY     46  44  91 SW6       29.85S
LADYSMITH      CLOUDY    46  45  95 SW8       29.85S
EAU CLAIRE     NOT AVBL
MENOMONIE      SUNNY     51  45  81 SW6       29.87F
NEW RICHMOND   SUNNY     48  44  86 SW8       29.86S
OSCEOLA        SUNNY     48  48  99 SW8       29.88S
$$

WIZ003>005-009-010-017-018-221400-
NORTH CENTRAL WISCONSIN

CITY           SKY/WX    TMP DP  RH WIND       PRES   REMARKS
MANITOWISH WTR CLOUDY    43  43 100 W7        29.79S
ARBOR VITAE    CLOUDY    44  42  93 W6        29.80R
WOODRUFF       CLOUDY    44  42  93 W6        29.80R
RHINELANDER    CLOUDY    46  43  89 W12G20    29.82R
EAGLE RIVER    DRIZZLE   44  43  96 W10       29.79S
LAND O LAKES   CLOUDY    45  42  88 W8        29.80S
PHILLIPS       CLOUDY    43  43 100 SW7       29.81S
TOMAHAWK       CLOUDY    44  41  89 SW3       29.84R
MEDFORD        CLOUDY    43  41  93 W8        29.85R
MERRILL        CLOUDY    45  43  94 W7        29.85S
$$

WIZ029-030-035-036-043>047-221400-
CENTRAL WISCONSIN

CITY           SKY/WX    TMP DP  RH WIND       PRES   REMARKS
WAUSAU         CLOUDY    46  42  86 W12       29.85S
MOSINEE        CLOUDY    46  45  93 W10       29.88S
MARSHFIELD     SUNNY     47  42  83 W9        29.87S
STEVENS POINT  CLOUDY    44  40  86 W9G18     29.89S
WAUPACA        SUNNY     51  42  71 W14G20    29.90S
WAUTOMA        MOSUNNY   50  42  74 W13G20    29.92S
WISC RAPIDS    SUNNY     50  42  74 W12       29.91S
CAMP DOUGLAS   NOT AVBL
$$

WIZ011>013-019>022-031-037>040-048>050-221400-
NORTHEAST WISCONSIN

CITY           SKY/WX    TMP DP  RH WIND       PRES   REMARKS
ANTIGO         CLOUDY    43  41  93 W10G21    29.84R
SHAWANO        CLOUDY    50  43  78 SW8       29.87R
OCONTO         CLOUDY    47  42  81 W12       29.85R
STURGEON BAY   LGT RAIN  48  43  82 W14       29.85R
GREEN BAY      CLOUDY    50  44  80 W16G22    29.88R
MANITOWOC      NOT AVBL
APPLETON       PTSUNNY   50  39  66 W15G22      N/A
CLINTONVILLE   CLOUDY    48  41  76 W10G17    29.88R
OSHKOSH        SUNNY     50  41  71 W14G20    29.90R
$$

WIZ032>034-041-042-053>061-221400-
SOUTHWEST WISCONSIN

CITY           SKY/WX    TMP DP  RH WIND       PRES   REMARKS
LA CROSSE      SUNNY     53  44  71 S10       29.91F
SPARTA         MOSUNNY   49  43  79 CALM      29.93S
VIROQUA        SUNNY     49  43  80 N7        29.93S
BOSCOBEL       SUNNY     51  43  74 SW6       29.96F
PRAIRIE DU CHI CLOUDY    49  43  78 S6        29.96S
PLATTEVILLE    SUNNY     49  47  94 S8        29.99S
$$

WIZ056-057-062-063-064-067-068-221400-
SOUTH CENTRAL WISCONSIN

CITY           SKY/WX    TMP DP  RH WIND       PRES   REMARKS
REEDSBURG      SUNNY     49  43  79 SW7       29.95R
BARABOO/DELLS  MOSUNNY   49  41  75 SW10      29.95R
LONE ROCK      NOT AVBL
MINERAL POINT  SUNNY     50  46  87 SW6       29.97S
MADISON        MOSUNNY   51  42  71 SW8       29.97R
MIDDLETON      SUNNY     52  43  71 W9G16     29.97S
WATERTOWN      SUNNY     49  43  80 SW10      29.96R
MONROE         SUNNY     50  43  76 SW10      29.99R
JANESVILLE     SUNNY     52  45  76 SW12G17   29.99R
$$

WIZ051-052-058>065-066-070>072-221400-
SOUTHEAST WISCONSIN

CITY           SKY/WX    TMP DP  RH WIND       PRES   REMARKS
MILWAUKEE      MOSUNNY   53  42  66 SW14      29.97S
WAUKESHA       SUNNY     48  41  76 W12       29.98R
MILWAUKEE/TIMM SUNNY     52  39  62 W12G21    29.97R
RACINE         SUNNY     52  42  69 W9        30.00R
KENOSHA        SUNNY     53  43  68 W13       30.00R
FOND DU LAC    SUNNY     51  40  65 W9        29.92S
SHEBOYGAN      SUNNY     50  43  77 W15G22    29.92R
WEST BEND      SUNNY     50  41  71 W14       29.93S
JUNEAU         MOSUNNY   48  42  80 SW15      29.95S
$$

LSZ147-162-221400-
LAKE SUPERIOR

STATION/POSITION TIME  TEMP    WIND        PRES    WAVE
                       AIR SEA DIR/SP/G            HT/PER
                 (UTC) (F)     (DEG/KT/KT) (MB)    (FT/S)
W MID LAKE BUOY  1150   41 37  240/ 16/ 17 1007.0R   2/ 4
DEVILS ISLAND    1200   44     230/ 19/ 21 1007.6R
PORT WING        1130   47     230/  7/ 12 1008.1S
SAXON HARBOR     1230   48     210/  5/ 11 1008.5R
$$

LMZ867-665-643>646-221400-
LAKE MICHIGAN

STATION/POSITION TIME  TEMP    WIND        PRES    WAVE
                       AIR SEA DIR/SP/G            HT/PER
                 (UTC) (F)     (DEG/KT/KT) (MB)    (FT/S)
CHAMBERS ISLAND  1240   47     210/  6/ 16 1009.8R
N MID LAKE BUOY  1150   42 38  210/ 14/ 17 1010.1R   3/ 5
NORTHPORT PIER   1240   47     230/  5/ 12 1009.8R
KEWAUNEE LAKESHO 1230   49     270/ 11/ 18 1011.1R
SHEBOYGAN LAKESH 1200   49     250/ 14/ 17 1012.7R
PORT WASHINGTON  1240   53     270/  7/ 15 1014.6S
MILWAUKEE LAKESH 1230   51     250/ 11/ 14   N/A
S MID LAKE BUOY  1150   47 44  260/ 14/ 16 1015.5R   3/ 4
KENOSHA   LAKESH 1200   50     260/ 10/ 13 1015.9
$$

TC  - TEMPERATURE IN CELSIUS
VSB - VISIBILITY IN STATUTE MILES
WCI - WIND CHILL INDEX
HX  - HEAT INDEX





USA.gov is the U.S. government's official web portal to all federal, state and local government web resources and services.